Time,TemperatureF,DewpointF,PressureIn,WindDirection,WindDirectionDegrees,WindSpeedMPH,WindSpeedGustMPH,Humidity,HourlyPrecipIn,Conditions,Clouds,dailyrainin,SolarRadiationWatts/m^2,SoftwareType,DateUTC
2013-01-31 00:03:00,50.0,50.0,-100.00,SW,218,9.0,19.0,100,0.19,,,1.14,0.000000,,2013-01-31 05:03:00,
2013-01-31 00:42:00,48.0,47.0,-100.00,WSW,249,14.0,30.0,98,0.11,,,1.25,0.000000,,2013-01-31 05:42:00,
2013-01-31 00:52:00,48.0,47.0,-100.00,WSW,249,14.0,30.0,98,0.11,,,1.25,0.000000,,2013-01-31 05:52:00,
2013-01-31 01:01:00,48.0,47.0,-100.00,WSW,249,14.0,30.0,98,0.11,,,1.25,0.000000,,2013-01-31 06:01:00,
2013-01-31 09:03:00,25.0,20.0,-100.00,WNW,282,8.0,32.0,80,0.00,,,1.51,4.000000,,2013-01-31 14:03:00,
2013-01-31 09:32:00,26.0,18.0,-100.00,WNW,282,10.0,26.0,72,0.00,,,1.51,108.000000,,2013-01-31 14:32:00,
2013-01-31 09:42:00,26.0,18.0,-100.00,WNW,282,10.0,26.0,72,0.00,,,1.51,108.000000,,2013-01-31 14:42:00,
2013-01-31 09:52:00,26.0,18.0,-100.00,WNW,282,10.0,26.0,72,0.00,,,1.51,108.000000,,2013-01-31 14:52:00,
2013-01-31 10:03:00,26.0,18.0,-100.00,WNW,282,10.0,26.0,72,0.00,,,1.51,108.000000,,2013-01-31 15:03:00,
2013-01-31 10:32:00,22.0,16.0,-100.00,West,280,10.0,25.0,79,0.00,,,1.51,99.000000,,2013-01-31 15:32:00,
2013-01-31 10:42:00,22.0,16.0,-100.00,West,280,10.0,25.0,79,0.00,,,1.51,99.000000,,2013-01-31 15:42:00,
2013-01-31 10:52:00,22.0,16.0,-100.00,West,280,10.0,25.0,79,0.00,,,1.51,99.000000,,2013-01-31 15:52:00,
2013-01-31 11:04:00,22.0,16.0,-100.00,West,280,10.0,25.0,79,0.00,,,1.51,99.000000,,2013-01-31 16:04:00,
2013-01-31 11:33:00,24.0,18.0,-100.00,West,276,12.0,28.0,79,0.00,,,1.50,193.000000,,2013-01-31 16:33:00,
2013-01-31 11:42:00,24.0,18.0,-100.00,West,276,12.0,28.0,79,0.00,,,1.50,193.000000,,2013-01-31 16:42:00,
2013-01-31 11:52:00,24.0,18.0,-100.00,West,276,12.0,28.0,79,0.00,,,1.50,193.000000,,2013-01-31 16:52:00,
2013-01-31 12:03:00,24.0,18.0,-100.00,West,276,12.0,28.0,79,0.00,,,1.50,193.000000,,2013-01-31 17:03:00,
2013-01-31 12:32:00,22.0,14.0,-100.00,West,275,10.0,26.0,70,0.00,,,1.43,215.000000,,2013-01-31 17:32:00,
2013-01-31 12:44:00,22.0,14.0,-100.00,West,275,10.0,26.0,70,0.00,,,1.43,215.000000,,2013-01-31 17:44:00,
2013-01-31 12:53:00,22.0,14.0,-100.00,West,275,10.0,26.0,70,0.00,,,1.43,215.000000,,2013-01-31 17:53:00,
2013-01-31 13:03:00,22.0,14.0,-100.00,West,275,10.0,26.0,70,0.00,,,1.43,215.000000,,2013-01-31 18:03:00,
2013-01-31 13:32:00,21.0,10.0,-100.00,WNW,282,12.0,27.0,61,0.00,,,1.42,228.000000,,2013-01-31 18:32:00,
2013-01-31 13:43:00,21.0,10.0,-100.00,WNW,282,12.0,27.0,61,0.00,,,1.42,228.000000,,2013-01-31 18:43:00,
2013-01-31 13:52:00,21.0,10.0,-100.00,WNW,282,12.0,27.0,61,0.00,,,1.42,228.000000,,2013-01-31 18:52:00,
2013-01-31 14:03:00,21.0,10.0,-100.00,WNW,282,12.0,27.0,61,0.00,,,1.42,228.000000,,2013-01-31 19:03:00,
2013-01-31 14:33:00,22.0,17.0,-100.00,West,281,5.0,21.0,82,0.00,,,1.39,196.000000,,2013-01-31 19:33:00,
2013-01-31 14:43:00,22.0,17.0,-100.00,West,281,5.0,21.0,82,0.00,,,1.39,196.000000,,2013-01-31 19:43:00,
2013-01-31 14:52:00,22.0,17.0,-100.00,West,281,5.0,21.0,82,0.00,,,1.39,196.000000,,2013-01-31 19:52:00,
2013-01-31 15:03:00,22.0,17.0,-100.00,West,281,5.0,21.0,82,0.00,,,1.39,196.000000,,2013-01-31 20:03:00,
2013-01-31 16:32:00,18.0,12.0,-100.00,West,279,10.0,27.0,78,-99.99,,,1.28,112.000000,,2013-01-31 21:32:00,
2013-01-31 16:42:00,18.0,12.0,-100.00,West,279,10.0,27.0,78,-99.99,,,1.28,112.000000,,2013-01-31 21:42:00,
2013-01-31 16:52:00,18.0,12.0,-100.00,West,279,10.0,27.0,78,-99.99,,,1.28,112.000000,,2013-01-31 21:52:00,
2013-01-31 17:03:00,18.0,12.0,-100.00,West,279,10.0,27.0,78,-99.99,,,1.28,112.000000,,2013-01-31 22:03:00,
2013-01-31 17:33:00,16.0,7.0,-100.00,West,276,7.0,27.0,68,0.00,,,1.21,31.000000,,2013-01-31 22:33:00,
2013-01-31 17:42:00,16.0,7.0,-100.00,West,276,7.0,27.0,68,0.00,,,1.21,31.000000,,2013-01-31 22:42:00,
2013-01-31 17:52:00,16.0,7.0,-100.00,West,276,7.0,27.0,68,0.00,,,1.21,31.000000,,2013-01-31 22:52:00,
2013-01-31 18:03:00,16.0,7.0,-100.00,West,276,7.0,27.0,68,0.00,,,1.21,31.000000,,2013-01-31 23:03:00,
2013-01-31 18:32:00,16.0,12.0,-100.00,WNW,287,9.0,21.0,84,0.00,,,1.12,2.000000,,2013-01-31 23:32:00,
2013-01-31 18:42:00,16.0,12.0,-100.00,WNW,287,9.0,21.0,84,0.00,,,1.12,2.000000,,2013-01-31 23:42:00,
2013-01-31 18:52:00,16.0,12.0,-100.00,WNW,287,9.0,21.0,84,0.00,,,1.12,2.000000,,2013-01-31 23:52:00,
2013-01-31 19:02:00,16.0,12.0,-100.00,WNW,287,9.0,21.0,84,0.00,,,1.12,2.000000,,2013-02-01 00:02:00,
2013-01-31 19:32:00,16.0,10.0,-100.00,West,269,7.0,21.0,77,0.00,,,1.06,0.000000,,2013-02-01 00:32:00,
2013-01-31 19:42:00,16.0,10.0,-100.00,West,269,7.0,21.0,77,0.00,,,1.06,0.000000,,2013-02-01 00:42:00,
2013-01-31 19:52:00,16.0,10.0,-100.00,West,269,7.0,21.0,77,0.00,,,1.06,0.000000,,2013-02-01 00:52:00,
2013-01-31 20:01:00,16.0,10.0,-100.00,West,269,7.0,21.0,77,0.00,,,1.06,0.000000,,2013-02-01 01:01:00,
2013-01-31 20:32:00,16.0,13.0,-100.00,West,271,3.0,15.0,87,0.00,,,-99.99,0.000000,,2013-02-01 01:32:00,
2013-01-31 20:42:00,16.0,13.0,-100.00,West,271,3.0,15.0,87,0.00,,,-99.99,0.000000,,2013-02-01 01:42:00,
2013-01-31 20:52:00,16.0,13.0,-100.00,West,271,3.0,15.0,87,0.00,,,-99.99,0.000000,,2013-02-01 01:52:00,
2013-01-31 21:02:00,16.0,13.0,-100.00,West,271,3.0,15.0,87,0.00,,,-99.99,0.000000,,2013-02-01 02:02:00,
2013-01-31 21:32:00,17.0,15.0,-100.00,West,273,8.0,17.0,90,0.00,,,0.76,0.000000,,2013-02-01 02:32:00,
2013-01-31 21:42:00,17.0,15.0,-100.00,West,273,8.0,17.0,90,0.00,,,0.76,0.000000,,2013-02-01 02:42:00,
2013-01-31 21:52:00,17.0,15.0,-100.00,West,273,8.0,17.0,90,0.00,,,0.76,0.000000,,2013-02-01 02:52:00,
2013-01-31 22:02:00,17.0,15.0,-100.00,West,273,8.0,17.0,90,0.00,,,0.76,0.000000,,2013-02-01 03:02:00,
2013-01-31 22:33:00,17.0,12.0,-100.00,WNW,288,8.0,20.0,80,0.00,,,0.56,0.000000,,2013-02-01 03:33:00,
2013-01-31 22:42:00,17.0,12.0,-100.00,WNW,288,8.0,20.0,80,0.00,,,0.56,0.000000,,2013-02-01 03:42:00,
2013-01-31 22:52:00,17.0,12.0,-100.00,WNW,288,8.0,20.0,80,0.00,,,0.56,0.000000,,2013-02-01 03:52:00,
2013-01-31 23:02:00,17.0,12.0,-100.00,WNW,288,8.0,20.0,80,0.00,,,0.56,0.000000,,2013-02-01 04:02:00,
2013-01-31 23:32:00,17.0,8.0,-100.00,WNW,298,8.0,26.0,66,0.00,,,0.37,0.000000,,2013-02-01 04:32:00,
2013-01-31 23:42:00,17.0,8.0,-100.00,WNW,298,8.0,26.0,66,0.00,,,0.37,0.000000,,2013-02-01 04:42:00,
2013-01-31 23:52:00,17.0,8.0,-100.00,WNW,298,8.0,26.0,66,0.00,,,0.37,0.000000,,2013-02-01 04:52:00,